Regional Weather Roundup
Issued by NWS

Home | Current Version | Previous Version | Text Only | Print | Product List | Glossary Off
Versions: 1 2 3 4 5 6 7 8 9 10 11 12 13 14 15 16 17 18 19 20 21 22 23 24 25 26 27 28 29 30 31 32 33 34 35 36 37 38 39 40 41 42 43 44 45 46 47 48 49 50

000
ASUS43 KLOT 220710
RWRIL

ILLINOIS REGIONAL WEATHER ROUNDUP
NATIONAL WEATHER SERVICE CHICAGO/ROMEOVILLE IL
200 AM CDT TUE JUL 22 2014

NOTE: "FAIR" INDICATES FEW OR NO CLOUDS BELOW 12,000 FEET WITH NO
SIGNIFICANT WEATHER AND/OR OBSTRUCTIONS TO VISIBILITY.

* THESE STATIONS ARE NOT UNDER NWS QUALITY CONTROL. THEY ALSO MAY NOT
  REPORT WEATHER SUCH AS PRECIPITATION OR FOG.

ILZ001-002-007-009-015-016-024-220800-
NORTHWEST ILLINOIS

CITY           SKY/WX    TMP DP  RH WIND       PRES   REMARKS
MOLINE         CLEAR     75  67  76 S12       30.01F
STERLING*      CLEAR     72  66  83 S3        30.04F
SAVANNA*       CLEAR     73  68  84 S7        30.01S
$$

ILZ003-004-008-010-011-017-018-220800-
NORTH CENTRAL ILLINOIS

CITY           SKY/WX    TMP DP  RH WIND       PRES   REMARKS
ROCKFORD       PTCLDY    71  66  84 S7        30.05S
FREEPORT*      CLEAR     71  69  92 S7        30.04F
ROCHELLE*      CLEAR     67  65  93 S5        30.05F FOG
DE KALB*       CLEAR     66  64  93 S6        30.07S
PERU*          CLEAR     70  65  84 SW8       30.07R
$$

ILZ005-006-012>014-019>023-220800-
NORTHEAST ILLINOIS

CITY           SKY/WX    TMP DP  RH WIND       PRES   REMARKS
CHICAGO-OHARE  CLEAR     72  63  73 SW5       30.05S
CHICAGO-MIDWAY CLEAR     75  65  70 S5        30.05F
AURORA         CLEAR     70  64  81 S7        30.06S
LANSING*       CLEAR     66  63  89 S3        30.07S
JOLIET*        FOG       65  64  94 CALM      30.07S VSB 3/4
WAUKEGAN       CLEAR     68  64  87 S5        30.05R
DUPAGE AIRPORT CLEAR     69  65  86 S7        30.06R
KANKAKEE*      CLEAR     65  64  96 CALM      30.08S FOG
WHEELING       CLEAR     74  65  73 S6        30.07R
MORRIS*        CLEAR     67  67  99 CALM      30.06R
ROMEOVILLE*    CLEAR     66  64  94 S5        30.07R
NORTHERLY ISL    N/A     75  63  66 S6          N/A
$$

LMZ740>746-220800-
SOUTHERN LAKE MICHIGAN

STATION/POSITION SKY/WX   TEMP    WIND        PRES    VSBY  WAVE
                          AIR SEA DIR/SP/G                  HT/PER
                          (F)     (DEG/KT/KT) (MB)    (MI)  (FT/S)
SOUTHERN BUOY              71 69  190/ 10/ 10 1017.4S         1
WAUKEGAN HARBOR            67     200/  7/  8 1018.6S
HARRISON CRIB              74     190/  9/ 10   N/A
BURNHAM HARBOR             74     190/  7/  8   N/A
CALUMET HARBOR             73     180/  5/  6 1016.9R
BURNS HARBOR               71     200/  6/  8 1018.6S
MICHIGAN CITY              73     150/  9/ 11   N/A
$$

ILZ025>027-034>036-040-047-049-050-058-095>099-220800-
WEST-CENTRAL ILLINOIS

CITY           SKY/WX    TMP DP  RH WIND       PRES   REMARKS
QUINCY         CLEAR     73  67  81 S8        30.04F
GALESBURG*     CLEAR     71  68  89 S5        30.05R
MACOMB*        CLEAR     70  67  91 S8        30.06F
JACKSONVILLE*  CLEAR     73  67  82 S6        30.07F
PITTSFIELD*    CLEAR     70  66  86 S3        30.07S
$$

ILZ028>032-037-038-041>044-048-051>054-059>061-220800-
CENTRAL ILLINOIS

CITY           SKY/WX    TMP DP  RH WIND       PRES   REMARKS
PONTIAC        CLEAR     68  66  94 S3        30.07S FOG
BLOOMINGTON    CLEAR     65  62  90 S7        30.09S
DECATUR        CLEAR     69  64  84 CALM      30.08S
PEORIA         CLEAR     72  65  78 S8        30.06S
LACON*         CLEAR     69  64  84 CALM      30.05R
LINCOLN*       CLEAR     67  64  90 S3        30.05S
SPRINGFIELD    CLEAR     71  65  81 S6        30.07S
TAYLORVILLE    CLEAR     64  63  94 SE5       30.08S
$$

ILZ033-039-045-046-055>057-062-063-220800-
EAST-CENTRAL ILLINOIS

CITY           SKY/WX    TMP DP  RH WIND       PRES   REMARKS
CHAMPAIGN      CLEAR     67  64  90 S6        30.08S
RANTOUL*       CLEAR     66  63  89 SE3       30.09S FOG
MATTOON        CLEAR     67  64  90 S3        30.07S
PARIS*         CLEAR     61  61  98 CALM      30.09S FOG
$$

ILZ079-100>102-220800-
SOUTHWEST ILLINOIS

CITY           SKY/WX    TMP DP  RH WIND       PRES   REMARKS
ALTON          CLEAR     67  67 100 CALM      30.07S
BELLEVILLE     CLEAR     68  68 100 CALM      30.06F FOG
CAHOKIA*       CLEAR     69  65  86 CALM      30.07R
SPARTA*        CLEAR     64  64 100 CALM      30.08R
$$

ILZ064>066-069>071-074>076-080>082-084>086-088>090-092>094-220800-
SOUTH-CENTRAL ILLINOIS

CITY           SKY/WX    TMP DP  RH WIND       PRES   REMARKS
CARBONDALE     CLEAR     65  63  93 CALM      30.07S
CAIRO*         CLEAR     68  66  92 CALM      30.07S
MARION         CLEAR     66  64  94 CALM      30.07F FOG
MT. VERNON     CLEAR     63  59  88 CALM      30.08S
CENTRALIA*     CLEAR     63  61  94 CALM      30.08R FOG
SALEM*         CLEAR     66  65  96 CALM      30.08S FOG
METROPOLIS*    CLEAR     65  64  94 CALM      30.06S FOG
$$

ILZ067-068-072-073-078-083-087-091-220800-
SOUTHEAST ILLINOIS

CITY           SKY/WX    TMP DP  RH WIND       PRES   REMARKS
FAIRFIELD*     CLEAR     66  64  94 CALM      30.07S FOG
HARRISBURG*    CLEAR     65  65 100 CALM      30.08S FOG
ROBINSON*      FOG       65  64  99 CALM      30.09S VSB 1/4
CARMI*         CLEAR     65  64  99 CALM      30.07S FOG
$$

ABBREVIATIONS USED IN REMARKS
   TC - TEMPERATURE IN CELSIUS
  WCI - WIND CHILL INDEX
   HX - HEAT INDEX
  VSB - VISIBILITY
$$




USA.gov is the U.S. government's official web portal to all federal, state and local government web resources and services.